Weather History for CYDA - September, 2012

Change the Weather History Date:

Tuesday, September 11, 2012

  Actual Average Record
Temperature  
Mean Temperature 37 °F -  
Max Temperature 47 °F 52 °F 64 °F (2007)
Min Temperature 27 °F 31 °F 19 °F (2004)
Degree Days  
Heating Degree Days 28    
Moisture  
Dew Point 23 °F    
Average Humidity 56    
Maximum Humidity 86    
Minimum Humidity 20    
Precipitation  
Precipitation 0.00 in - - ()
Sea Level Pressure  
Sea Level Pressure 30.04 in    
Wind  
Wind Speed 1 mph ()    
Max Wind Speed 8 mph    
Max Gust Speed -    
Visibility 20.0 miles    
Events      
Averages and records for this station are not official NWS values.
T = Trace of Precipitation, MM = Missing Value Source: Averaged Metar Reports

Daily Weather History Graph

Daily Weather History Graph

Search for Another Location

Airport or City:

Trip Planner

Search our weather history database for the weather conditions in past years. The results will help you decide how hot, cold, wet, or windy it might be!

Date:

Astronomy

Sep. 11, 2012 Rise Set
Actual Time 7:30 AM PDT 8:53 PM PDT
Civil Twilight 6:40 AM PDT 9:43 PM PDT
Nautical Twilight 5:36 AM PDT 10:46 PM PDT
Astronomical Twilight 4:14 AM PDT 12:05 AM PDT
Moon 1:31 AM PDT (9/11) 7:16 PM PDT (9/11)
Length of Visible Light 15h 02m
Length of Day
13h 23m
Waning Crescent, 20% of the Moon is Illuminated
Sep 11
Waning Crescent
Sep 15
New
Sep 22
First Quarter
Sep 29
Full
Oct 8
Last Quarter

Hourly Weather History & Observations

Time (PDT) Temp. Windchill Dew Point Humidity Pressure Visibility Wind Dir Wind Speed Gust Speed Precip Events Conditions
2:00 AM 29 °F - 23 °F 71% 30.01 in - Calm Calm - -  
5:00 AM 29 °F - 24 °F 75% 30.04 in - Calm Calm - -  
6:00 AM 28.4 °F - 24.8 °F 86% 30.04 in 20.0 mi Calm Calm - N/A   Mostly Cloudy
7:00 AM 28.4 °F - 24.8 °F 86% 30.05 in 20.0 mi Calm Calm - N/A   Mostly Cloudy
8:00 AM 28 °F - 21 °F 66% 30.07 in - East 3.5 mph - -  
8:00 AM 28.4 °F - 23.0 °F 80% 30.07 in 20.0 mi Calm Calm - N/A   Mostly Cloudy
9:00 AM 28.4 °F - 23.0 °F 80% 30.07 in 20.0 mi Calm Calm - N/A   Mostly Cloudy
10:00 AM 30.2 °F - 26.6 °F 86% 30.07 in 20.0 mi Calm Calm - N/A   Mostly Cloudy
11:00 AM 35 °F - 24 °F 53% 30.08 in - ENE 2.3 mph - -  
11:00 AM 33.8 °F - 26.6 °F 75% 30.08 in 20.0 mi Calm Calm - N/A   Mostly Cloudy
12:00 PM 39.2 °F - 30.2 °F 70% 30.08 in 20.0 mi Calm Calm - N/A   Scattered Clouds
1:00 PM 41.0 °F - 23.0 °F 49% 30.06 in 20.0 mi NNE 2.3 mph - N/A   Partly Cloudy
2:00 PM 44 °F - 20 °F 26% 30.04 in - ENE 4.6 mph - -  
2:00 PM 44.6 °F 43.1 °F 21.2 °F 39% 30.04 in 20.0 mi ENE 3.5 mph - N/A   Scattered Clouds
3:00 PM 46.4 °F - 21.2 °F 37% 30.04 in 20.0 mi North 2.3 mph - N/A   Partly Cloudy
5:00 PM 46 °F - 18 °F 20% 30.02 in - NE 8.1 mph - -  
5:00 PM 44.6 °F 40.7 °F 23.0 °F 43% 30.02 in 20.0 mi ENE 6.9 mph - N/A   Mostly Cloudy
6:00 PM 46.4 °F 43.5 °F 21.2 °F 37% 30.01 in 20.0 mi NNE 5.8 mph - N/A   Mostly Cloudy
7:00 PM 44.6 °F - 23.0 °F 43% 30.00 in 20.0 mi ENE 2.3 mph - N/A   Mostly Cloudy
8:00 PM 45 °F - 20 °F 23% 30.00 in - ENE 2.3 mph - -  
8:00 PM 44.6 °F - 21.2 °F 39% 30.00 in 20.0 mi Calm Calm - N/A   Mostly Cloudy
11:00 PM 38 °F - 25 °F 48% 29.98 in - ENE 3.5 mph - -